Year,Month,Day,Hour,Minute,Value (Times are PST for temperature in C)
2012,10,21,00,00,6.40
2012,10,21,00,01,6.40
2012,10,21,00,02,6.40
2012,10,21,00,03,6.40
2012,10,21,00,04,6.40
2012,10,21,00,05,6.40
2012,10,21,00,06,6.40
2012,10,21,00,07,6.40
2012,10,21,00,08,6.40
2012,10,21,00,09,6.40
2012,10,21,00,10,6.40
2012,10,21,00,11,6.30
2012,10,21,00,12,6.40
2012,10,21,00,13,6.40
2012,10,21,00,14,6.40
2012,10,21,00,15,6.40
2012,10,21,00,16,6.40
2012,10,21,00,17,6.40
2012,10,21,00,18,6.40
2012,10,21,00,19,6.40
2012,10,21,00,20,6.40
2012,10,21,00,21,6.40
2012,10,21,00,22,6.40
2012,10,21,00,23,6.40
2012,10,21,00,24,6.40
2012,10,21,00,25,6.30
2012,10,21,00,26,6.30
2012,10,21,00,27,6.30
2012,10,21,00,28,6.30
2012,10,21,00,29,6.30
2012,10,21,00,30,6.30
2012,10,21,00,31,6.30
2012,10,21,00,32,6.30
2012,10,21,00,33,6.30
2012,10,21,00,34,6.30
2012,10,21,00,35,6.30
2012,10,21,00,36,6.30
2012,10,21,00,37,6.30
2012,10,21,00,38,6.30
2012,10,21,00,39,6.30
2012,10,21,00,40,6.30
2012,10,21,00,41,6.30
2012,10,21,00,42,6.30
2012,10,21,00,43,6.30
2012,10,21,00,44,6.30
2012,10,21,00,45,6.30
2012,10,21,00,46,6.20
2012,10,21,00,47,6.20
2012,10,21,00,48,6.20
2012,10,21,00,49,6.30
2012,10,21,00,50,6.30
2012,10,21,00,51,6.30
2012,10,21,00,52,6.20
2012,10,21,00,53,6.20
2012,10,21,00,54,6.20
2012,10,21,00,55,6.10
2012,10,21,00,56,6.10
2012,10,21,00,57,6.10
2012,10,21,00,58,6.10
2012,10,21,00,59,6.10
2012,10,21,01,00,6.00
2012,10,21,01,01,6.00
2012,10,21,01,02,6.10
2012,10,21,01,03,6.10
2012,10,21,01,04,6.10
2012,10,21,01,05,6.10
2012,10,21,01,06,6.10
2012,10,21,01,07,6.10
2012,10,21,01,08,6.10
2012,10,21,01,09,6.10
2012,10,21,01,10,6.10
2012,10,21,01,11,6.10
2012,10,21,01,12,6.10
2012,10,21,01,13,6.20
2012,10,21,01,14,6.20
2012,10,21,01,15,6.20
2012,10,21,01,16,6.20
2012,10,21,01,17,6.20
2012,10,21,01,18,6.20
2012,10,21,01,19,6.20
2012,10,21,01,20,6.20
2012,10,21,01,21,6.20
2012,10,21,01,22,6.20
2012,10,21,01,23,6.20
2012,10,21,01,24,6.20
2012,10,21,01,25,6.20
2012,10,21,01,26,6.20
2012,10,21,01,27,6.20
2012,10,21,01,28,6.30
2012,10,21,01,29,6.30
2012,10,21,01,30,6.30
2012,10,21,01,31,6.30
2012,10,21,01,32,6.30
2012,10,21,01,33,6.30
2012,10,21,01,34,6.30
2012,10,21,01,35,6.30
2012,10,21,01,36,6.30
2012,10,21,01,37,6.20
2012,10,21,01,38,6.20
2012,10,21,01,39,6.20
2012,10,21,01,40,6.20
2012,10,21,01,41,6.20
2012,10,21,01,42,6.30
2012,10,21,01,43,6.30
2012,10,21,01,44,6.30
2012,10,21,01,45,6.30
2012,10,21,01,46,6.30
2012,10,21,01,47,6.30
2012,10,21,01,48,6.30
2012,10,21,01,49,6.30
2012,10,21,01,50,6.40
2012,10,21,01,51,6.40
2012,10,21,01,52,6.40
2012,10,21,01,53,6.40
2012,10,21,01,54,6.40
2012,10,21,01,55,6.40
2012,10,21,01,56,6.40
2012,10,21,01,57,6.40
2012,10,21,01,58,6.40
2012,10,21,01,59,6.40
2012,10,21,02,00,6.40
2012,10,21,02,01,6.40
2012,10,21,02,02,6.40
2012,10,21,02,03,6.40
2012,10,21,02,04,6.40
2012,10,21,02,05,6.40
2012,10,21,02,06,6.40
2012,10,21,02,07,6.40
2012,10,21,02,08,6.40
2012,10,21,02,09,6.40
2012,10,21,02,10,6.50
2012,10,21,02,11,6.50
2012,10,21,02,12,6.50
2012,10,21,02,13,6.50
2012,10,21,02,14,6.40
2012,10,21,02,15,6.40
2012,10,21,02,16,6.40
2012,10,21,02,17,6.40
2012,10,21,02,18,6.40
2012,10,21,02,19,6.40
2012,10,21,02,20,6.40
2012,10,21,02,21,6.40
2012,10,21,02,22,6.40
2012,10,21,02,23,6.40
2012,10,21,02,24,6.40
2012,10,21,02,25,6.40
2012,10,21,02,26,6.40
2012,10,21,02,27,6.40
2012,10,21,02,28,6.40
2012,10,21,02,29,6.40
2012,10,21,02,30,6.40
2012,10,21,02,31,6.40
2012,10,21,02,32,6.40
2012,10,21,02,33,6.40
2012,10,21,02,34,6.40
2012,10,21,02,35,6.40
2012,10,21,02,36,6.40
2012,10,21,02,37,6.40
2012,10,21,02,38,6.40
2012,10,21,02,39,6.50
2012,10,21,02,40,6.50
2012,10,21,02,41,6.50
2012,10,21,02,42,6.50
2012,10,21,02,43,6.50
2012,10,21,02,44,6.50
2012,10,21,02,45,6.40
2012,10,21,02,46,6.40
2012,10,21,02,47,6.40
2012,10,21,02,48,6.40
2012,10,21,02,49,6.40
2012,10,21,02,50,6.30
2012,10,21,02,51,6.30
2012,10,21,02,52,6.30
2012,10,21,02,53,6.30
2012,10,21,02,54,6.30
2012,10,21,02,55,6.40
2012,10,21,02,56,6.40
2012,10,21,02,57,6.40
2012,10,21,02,58,6.40
2012,10,21,02,59,6.40
2012,10,21,03,00,6.40
2012,10,21,03,01,6.40
2012,10,21,03,02,6.40
2012,10,21,03,03,6.40
2012,10,21,03,04,6.40
2012,10,21,03,05,6.40
2012,10,21,03,06,6.40
2012,10,21,03,07,6.40
2012,10,21,03,08,6.40
2012,10,21,03,09,6.40
2012,10,21,03,10,6.40
2012,10,21,03,11,6.40
2012,10,21,03,12,6.40
2012,10,21,03,13,6.50
2012,10,21,03,14,6.50
2012,10,21,03,15,6.50
2012,10,21,03,16,6.50
2012,10,21,03,17,6.50
2012,10,21,03,18,6.50
2012,10,21,03,19,6.50
2012,10,21,03,20,6.50
2012,10,21,03,21,6.50
2012,10,21,03,22,6.50
2012,10,21,03,23,6.50
2012,10,21,03,24,6.50
2012,10,21,03,25,6.50
2012,10,21,03,26,6.50
2012,10,21,03,27,6.60
2012,10,21,03,28,6.60
2012,10,21,03,29,6.60
2012,10,21,03,30,6.60
2012,10,21,03,31,6.60
2012,10,21,03,32,6.50
2012,10,21,03,33,6.50
2012,10,21,03,34,6.50
2012,10,21,03,35,6.50
2012,10,21,03,36,6.50
2012,10,21,03,37,6.50
2012,10,21,03,38,6.50
2012,10,21,03,39,6.50
2012,10,21,03,40,6.50
2012,10,21,03,41,6.50
2012,10,21,03,42,6.50
2012,10,21,03,43,6.50
2012,10,21,03,44,6.50
2012,10,21,03,45,6.60
2012,10,21,03,46,6.60
2012,10,21,03,47,6.50
2012,10,21,03,48,6.50
2012,10,21,03,49,6.50
2012,10,21,03,50,6.50
2012,10,21,03,51,6.50
2012,10,21,03,52,6.50
2012,10,21,03,53,6.50
2012,10,21,03,54,6.50
2012,10,21,03,55,6.50
2012,10,21,03,56,6.50
2012,10,21,03,57,6.50
2012,10,21,03,58,6.50
2012,10,21,03,59,6.50
2012,10,21,04,00,6.50
2012,10,21,04,01,6.50
2012,10,21,04,02,6.50
2012,10,21,04,03,6.50
2012,10,21,04,04,6.50
2012,10,21,04,05,6.50
2012,10,21,04,06,6.50
2012,10,21,04,07,6.50
2012,10,21,04,08,6.50
2012,10,21,04,09,6.50
2012,10,21,04,10,6.60
2012,10,21,04,11,6.60
2012,10,21,04,12,6.60
2012,10,21,04,13,6.60
2012,10,21,04,14,6.60
2012,10,21,04,15,6.60
2012,10,21,04,16,6.60
2012,10,21,04,17,6.60
2012,10,21,04,18,6.50
2012,10,21,04,19,6.50
2012,10,21,04,20,6.50
2012,10,21,04,21,6.50
2012,10,21,04,22,6.50
2012,10,21,04,23,6.50
2012,10,21,04,24,6.50
2012,10,21,04,25,6.50
2012,10,21,04,26,6.50
2012,10,21,04,27,6.50
2012,10,21,04,28,6.50
2012,10,21,04,29,6.50
2012,10,21,04,30,6.50
2012,10,21,04,31,6.50
2012,10,21,04,32,6.50
2012,10,21,04,33,6.50
2012,10,21,04,34,6.50
2012,10,21,04,35,6.60
2012,10,21,04,36,6.60
2012,10,21,04,37,6.60
2012,10,21,04,38,6.60
2012,10,21,04,39,6.60
2012,10,21,04,40,6.60
2012,10,21,04,41,6.60
2012,10,21,04,42,6.50
2012,10,21,04,43,6.50
2012,10,21,04,44,6.50
2012,10,21,04,45,6.50
2012,10,21,04,46,6.50
2012,10,21,04,47,6.50
2012,10,21,04,48,6.50
2012,10,21,04,49,6.50
2012,10,21,04,50,6.50
2012,10,21,04,51,6.50
2012,10,21,04,52,6.50
2012,10,21,04,53,6.40
2012,10,21,04,54,6.40
2012,10,21,04,55,6.40
2012,10,21,04,56,6.40
2012,10,21,04,57,6.50
2012,10,21,04,58,6.40
2012,10,21,04,59,6.40
2012,10,21,05,00,6.40
2012,10,21,05,01,6.40
2012,10,21,05,02,6.40
2012,10,21,05,03,6.40
2012,10,21,05,04,6.40
2012,10,21,05,05,6.40
2012,10,21,05,06,6.40
2012,10,21,05,07,6.40
2012,10,21,05,08,6.40
2012,10,21,05,09,6.40
2012,10,21,05,10,6.40
2012,10,21,05,11,6.40
2012,10,21,05,12,6.40
2012,10,21,05,13,6.40
2012,10,21,05,14,6.40
2012,10,21,05,15,6.40
2012,10,21,05,16,6.40
2012,10,21,05,17,6.40
2012,10,21,05,18,6.30
2012,10,21,05,19,6.30
2012,10,21,05,20,6.30
2012,10,21,05,21,6.30
2012,10,21,05,22,6.30
2012,10,21,05,23,6.30
2012,10,21,05,24,6.30
2012,10,21,05,25,6.30
2012,10,21,05,26,6.30
2012,10,21,05,27,6.30
2012,10,21,05,28,6.30
2012,10,21,05,29,6.30
2012,10,21,05,30,6.30
2012,10,21,05,31,6.20
2012,10,21,05,32,6.20
2012,10,21,05,33,6.20
2012,10,21,05,34,6.20
2012,10,21,05,35,6.20
2012,10,21,05,36,6.20
2012,10,21,05,37,6.20
2012,10,21,05,38,6.20
2012,10,21,05,39,6.20
2012,10,21,05,40,6.20
2012,10,21,05,41,6.10
2012,10,21,05,42,6.10
2012,10,21,05,43,6.10
2012,10,21,05,44,6.10
2012,10,21,05,45,6.10
2012,10,21,05,46,6.10
2012,10,21,05,47,6.10
2012,10,21,05,48,6.10
2012,10,21,05,49,6.00
2012,10,21,05,50,6.00
2012,10,21,05,51,6.00
2012,10,21,05,52,5.90
2012,10,21,05,53,5.90
2012,10,21,05,54,5.90
2012,10,21,05,55,5.80
2012,10,21,05,56,5.80
2012,10,21,05,57,5.80
2012,10,21,05,58,5.80
2012,10,21,05,59,5.70
2012,10,21,06,00,5.70
2012,10,21,06,01,5.70
2012,10,21,06,02,5.70
2012,10,21,06,03,5.70
2012,10,21,06,04,5.70
2012,10,21,06,05,5.70
2012,10,21,06,06,5.70
2012,10,21,06,07,5.70
2012,10,21,06,08,5.70
2012,10,21,06,09,5.70
2012,10,21,06,10,5.70
2012,10,21,06,11,5.60
2012,10,21,06,12,5.60
2012,10,21,06,13,5.60
2012,10,21,06,14,5.60
2012,10,21,06,15,5.60
2012,10,21,06,16,5.60
2012,10,21,06,17,5.60
2012,10,21,06,18,5.60
2012,10,21,06,19,5.60
2012,10,21,06,20,5.60
2012,10,21,06,21,5.60
2012,10,21,06,22,5.60
2012,10,21,06,23,5.60
2012,10,21,06,24,5.60
2012,10,21,06,25,5.60
2012,10,21,06,26,5.60
2012,10,21,06,27,5.50
2012,10,21,06,28,5.50
2012,10,21,06,29,5.50
2012,10,21,06,30,5.50
2012,10,21,06,31,5.50
2012,10,21,06,32,5.40
2012,10,21,06,33,5.40
2012,10,21,06,34,5.40
2012,10,21,06,35,5.40
2012,10,21,06,36,5.40
2012,10,21,06,37,5.30
2012,10,21,06,38,5.30
2012,10,21,06,39,5.30
2012,10,21,06,40,5.30
2012,10,21,06,41,5.30
2012,10,21,06,42,5.30
2012,10,21,06,43,5.20
2012,10,21,06,44,5.20
2012,10,21,06,45,5.20
2012,10,21,06,46,5.20
2012,10,21,06,47,5.10
2012,10,21,06,48,5.10
2012,10,21,06,49,5.10
2012,10,21,06,50,5.10
2012,10,21,06,51,5.00
2012,10,21,06,52,5.00
2012,10,21,06,53,5.00
2012,10,21,06,54,5.00
2012,10,21,06,55,4.90
2012,10,21,06,56,4.90
2012,10,21,06,57,4.90
2012,10,21,06,58,4.90
2012,10,21,06,59,4.80
2012,10,21,07,00,4.80
2012,10,21,07,01,4.80
2012,10,21,07,02,4.80
2012,10,21,07,03,4.80
2012,10,21,07,04,4.80
2012,10,21,07,05,4.80
2012,10,21,07,06,4.80
2012,10,21,07,07,4.80
2012,10,21,07,08,4.70
2012,10,21,07,09,4.70
2012,10,21,07,10,4.70
2012,10,21,07,11,4.60
2012,10,21,07,12,4.60
2012,10,21,07,13,4.60
2012,10,21,07,14,4.60
2012,10,21,07,15,4.50
2012,10,21,07,16,4.50
2012,10,21,07,17,4.40
2012,10,21,07,18,4.40
2012,10,21,07,19,4.40
2012,10,21,07,20,4.30
2012,10,21,07,21,4.30
2012,10,21,07,22,4.30
2012,10,21,07,23,4.30
2012,10,21,07,24,4.30
2012,10,21,07,25,4.30
2012,10,21,07,26,4.30
2012,10,21,07,27,4.30
2012,10,21,07,28,4.20
2012,10,21,07,29,4.20
2012,10,21,07,30,4.10
2012,10,21,07,31,4.10
2012,10,21,07,32,4.10
2012,10,21,07,33,4.00
2012,10,21,07,34,4.10
2012,10,21,07,35,4.10
2012,10,21,07,36,4.00
2012,10,21,07,37,4.00
2012,10,21,07,38,4.00
2012,10,21,07,39,4.00
2012,10,21,07,40,4.00
2012,10,21,07,41,3.90
2012,10,21,07,42,3.90
2012,10,21,07,43,3.90
2012,10,21,07,44,3.90
2012,10,21,07,45,3.90
2012,10,21,07,46,3.90
2012,10,21,07,47,3.90
2012,10,21,07,48,3.90
2012,10,21,07,49,3.90
2012,10,21,07,50,3.80
2012,10,21,07,51,3.80
2012,10,21,07,52,3.80
2012,10,21,07,53,3.80
2012,10,21,07,54,3.80
2012,10,21,07,55,3.80
2012,10,21,07,56,3.80
2012,10,21,07,57,3.80
2012,10,21,07,58,3.80
2012,10,21,07,59,3.80
2012,10,21,08,00,3.80
2012,10,21,08,01,3.90
2012,10,21,08,02,3.90
2012,10,21,08,03,3.90
2012,10,21,08,04,3.90
2012,10,21,08,05,3.90
2012,10,21,08,06,3.80
2012,10,21,08,07,3.80
2012,10,21,08,08,3.80
2012,10,21,08,09,3.80
2012,10,21,08,10,3.80
2012,10,21,08,11,3.80
2012,10,21,08,12,3.80
2012,10,21,08,13,3.80
2012,10,21,08,14,3.80
2012,10,21,08,15,3.80
2012,10,21,08,16,3.70
2012,10,21,08,17,3.70
2012,10,21,08,18,3.70
2012,10,21,08,19,3.70
2012,10,21,08,20,3.70
2012,10,21,08,21,3.70
2012,10,21,08,22,3.70
2012,10,21,08,23,3.70
2012,10,21,08,24,3.70
2012,10,21,08,25,3.70
2012,10,21,08,26,3.70
2012,10,21,08,27,3.70
2012,10,21,08,28,3.70
2012,10,21,08,29,3.80
2012,10,21,08,30,3.80
2012,10,21,08,31,3.80
2012,10,21,08,32,3.80
2012,10,21,08,33,3.80
2012,10,21,08,34,3.80
2012,10,21,08,35,3.80
2012,10,21,08,36,3.90
2012,10,21,08,37,3.90
2012,10,21,08,38,3.90
2012,10,21,08,39,4.00
2012,10,21,08,40,4.00
2012,10,21,08,41,4.00
2012,10,21,08,42,4.10
2012,10,21,08,43,4.10
2012,10,21,08,44,4.10
2012,10,21,08,45,4.20
2012,10,21,08,46,4.20
2012,10,21,08,47,4.20
2012,10,21,08,48,4.30
2012,10,21,08,49,4.30
2012,10,21,08,50,4.30
2012,10,21,08,51,4.30
2012,10,21,08,52,4.30
2012,10,21,08,53,4.30
2012,10,21,08,54,4.30
2012,10,21,08,55,4.30
2012,10,21,08,56,4.30
2012,10,21,08,57,4.30
2012,10,21,08,58,4.20
2012,10,21,08,59,4.20
2012,10,21,09,00,4.20
2012,10,21,09,01,4.20
2012,10,21,09,02,4.20
2012,10,21,09,03,4.20
2012,10,21,09,04,4.20
2012,10,21,09,05,4.20
2012,10,21,09,06,4.30
2012,10,21,09,07,4.30
2012,10,21,09,08,4.30
2012,10,21,09,09,4.30
2012,10,21,09,10,4.30
2012,10,21,09,11,4.30
2012,10,21,09,12,4.30
2012,10,21,09,13,4.40
2012,10,21,09,14,4.40
2012,10,21,09,15,4.40
2012,10,21,09,16,4.40
2012,10,21,09,17,4.40
2012,10,21,09,18,4.40
2012,10,21,09,19,4.40
2012,10,21,09,20,4.40
2012,10,21,09,21,4.50
2012,10,21,09,22,4.50
2012,10,21,09,23,4.50
2012,10,21,09,24,4.50
2012,10,21,09,25,4.60
2012,10,21,09,26,4.60
2012,10,21,09,27,4.70
2012,10,21,09,28,4.70
2012,10,21,09,29,4.70
2012,10,21,09,30,4.80
2012,10,21,09,31,4.90
2012,10,21,09,32,5.00
2012,10,21,09,33,5.00
2012,10,21,09,34,5.10
2012,10,21,09,35,5.10
2012,10,21,09,36,5.20
2012,10,21,09,37,5.30
2012,10,21,09,38,5.30
2012,10,21,09,39,5.40
2012,10,21,09,40,5.40
2012,10,21,09,41,5.50
2012,10,21,09,42,5.60
2012,10,21,09,43,5.60
2012,10,21,09,44,5.70
2012,10,21,09,45,5.70
2012,10,21,09,46,5.70
2012,10,21,09,47,5.80
2012,10,21,09,48,5.90
2012,10,21,09,49,6.00
2012,10,21,09,50,6.00
2012,10,21,09,51,6.10
2012,10,21,09,52,6.10
2012,10,21,09,53,6.10
2012,10,21,09,54,6.10
2012,10,21,09,55,6.10
2012,10,21,09,56,6.00
2012,10,21,09,57,6.00
2012,10,21,09,58,6.00
2012,10,21,09,59,6.00
2012,10,21,10,00,6.00
2012,10,21,10,01,6.00
2012,10,21,10,02,6.00
2012,10,21,10,03,6.00
2012,10,21,10,04,6.00
2012,10,21,10,05,6.00
2012,10,21,10,06,6.00
2012,10,21,10,07,6.00
2012,10,21,10,08,6.00
2012,10,21,10,09,6.00
2012,10,21,10,10,5.90
2012,10,21,10,11,5.90
2012,10,21,10,12,5.90
2012,10,21,10,13,5.90
2012,10,21,10,14,6.00
2012,10,21,10,15,6.00
2012,10,21,10,16,6.00
2012,10,21,10,17,6.00
2012,10,21,10,18,6.10
2012,10,21,10,19,6.10
2012,10,21,10,20,6.10
2012,10,21,10,21,6.20
2012,10,21,10,22,6.20
2012,10,21,10,23,6.20
2012,10,21,10,24,6.20
2012,10,21,10,25,6.30
2012,10,21,10,26,6.30
2012,10,21,10,27,6.30
2012,10,21,10,28,6.30
2012,10,21,10,29,6.30
2012,10,21,10,30,6.30
2012,10,21,10,31,6.30
2012,10,21,10,32,6.30
2012,10,21,10,33,6.30
2012,10,21,10,34,6.40
2012,10,21,10,35,6.40
2012,10,21,10,36,6.40
2012,10,21,10,37,6.40
2012,10,21,10,38,6.50
2012,10,21,10,39,6.50
2012,10,21,10,40,6.50
2012,10,21,10,41,6.50
2012,10,21,10,42,6.60
2012,10,21,10,43,6.60
2012,10,21,10,44,6.60
2012,10,21,10,45,6.70
2012,10,21,10,46,6.70
2012,10,21,10,47,6.70
2012,10,21,10,48,6.80
2012,10,21,10,49,6.80
2012,10,21,10,50,6.80
2012,10,21,10,51,6.90
2012,10,21,10,52,6.90
2012,10,21,10,53,6.90
2012,10,21,10,54,7.00
2012,10,21,10,55,7.00
2012,10,21,10,56,7.10
2012,10,21,10,57,7.10
2012,10,21,10,58,7.20
2012,10,21,10,59,7.20
2012,10,21,11,00,7.20
2012,10,21,11,01,7.20
2012,10,21,11,02,7.20
2012,10,21,11,03,7.20
2012,10,21,11,04,7.30
2012,10,21,11,05,7.30
2012,10,21,11,06,7.30
2012,10,21,11,07,7.30
2012,10,21,11,08,7.30
2012,10,21,11,09,7.30
2012,10,21,11,10,7.20
2012,10,21,11,11,7.20
2012,10,21,11,12,7.20
2012,10,21,11,13,7.20
2012,10,21,11,14,7.20
2012,10,21,11,15,7.20
2012,10,21,11,16,7.20
2012,10,21,11,17,7.20
2012,10,21,11,18,7.20
2012,10,21,11,19,7.20
2012,10,21,11,20,7.30
2012,10,21,11,21,7.30
2012,10,21,11,22,7.30
2012,10,21,11,23,7.30
2012,10,21,11,24,7.20
2012,10,21,11,25,7.20
2012,10,21,11,26,7.20
2012,10,21,11,27,7.20
2012,10,21,11,28,7.20
2012,10,21,11,29,7.20
2012,10,21,11,30,7.30
2012,10,21,11,31,7.20
2012,10,21,11,32,7.20
2012,10,21,11,33,7.20
2012,10,21,11,34,7.20
2012,10,21,11,35,7.20
2012,10,21,11,36,7.20
2012,10,21,11,37,7.30
2012,10,21,11,38,7.30
2012,10,21,11,39,7.30
2012,10,21,11,40,7.30
2012,10,21,11,41,7.30
2012,10,21,11,42,7.40
2012,10,21,11,43,7.40
2012,10,21,11,44,7.50
2012,10,21,11,45,7.50
2012,10,21,11,46,7.60
2012,10,21,11,47,7.70
2012,10,21,11,48,7.70
2012,10,21,11,49,7.70
2012,10,21,11,50,7.70
2012,10,21,11,51,7.70
2012,10,21,11,52,7.70
2012,10,21,11,53,7.70
2012,10,21,11,54,7.70
2012,10,21,11,55,7.80
2012,10,21,11,56,7.80
2012,10,21,11,57,7.80
2012,10,21,11,58,7.80
2012,10,21,11,59,7.90
2012,10,21,12,00,8.00
2012,10,21,12,01,8.00
2012,10,21,12,02,8.10
2012,10,21,12,03,8.10
2012,10,21,12,04,8.20
2012,10,21,12,05,8.10
2012,10,21,12,06,8.10
2012,10,21,12,07,8.00
2012,10,21,12,08,8.00
2012,10,21,12,09,8.00
2012,10,21,12,10,7.90
2012,10,21,12,11,7.90
2012,10,21,12,12,7.90
2012,10,21,12,13,7.90
2012,10,21,12,14,8.00
2012,10,21,12,15,8.00
2012,10,21,12,16,8.10
2012,10,21,12,17,8.10
2012,10,21,12,18,8.10
2012,10,21,12,19,8.10
2012,10,21,12,20,8.10
2012,10,21,12,21,8.10
2012,10,21,12,22,8.10
2012,10,21,12,23,8.10
2012,10,21,12,24,8.10
2012,10,21,12,25,8.20
2012,10,21,12,26,8.20
2012,10,21,12,27,8.30
2012,10,21,12,28,8.30
2012,10,21,12,29,8.30
2012,10,21,12,30,8.30
2012,10,21,12,31,8.30
2012,10,21,12,32,8.30
2012,10,21,12,33,8.40
2012,10,21,12,34,8.40
2012,10,21,12,35,8.30
2012,10,21,12,36,8.30
2012,10,21,12,37,8.40
2012,10,21,12,38,8.40
2012,10,21,12,39,8.40
2012,10,21,12,40,8.40
2012,10,21,12,41,8.30
2012,10,21,12,42,8.30
2012,10,21,12,43,8.30
2012,10,21,12,44,8.30
2012,10,21,12,45,8.30
2012,10,21,12,46,8.30
2012,10,21,12,47,8.40
2012,10,21,12,48,8.40
2012,10,21,12,49,8.50
2012,10,21,12,50,8.60
2012,10,21,12,51,8.60
2012,10,21,12,52,8.60
2012,10,21,12,53,8.60
2012,10,21,12,54,8.60
2012,10,21,12,55,8.60
2012,10,21,12,56,8.60
2012,10,21,12,57,8.70
2012,10,21,12,58,8.70
2012,10,21,12,59,8.70
2012,10,21,13,00,8.80
2012,10,21,13,01,8.80
2012,10,21,13,02,8.80
2012,10,21,13,03,8.90
2012,10,21,13,04,8.90
2012,10,21,13,05,8.90
2012,10,21,13,06,8.90
2012,10,21,13,07,8.90
2012,10,21,13,08,8.90
2012,10,21,13,09,8.90
2012,10,21,13,10,8.90
2012,10,21,13,11,8.90
2012,10,21,13,12,8.90
2012,10,21,13,13,8.90
2012,10,21,13,14,8.90
2012,10,21,13,15,9.00
2012,10,21,13,16,9.00
2012,10,21,13,17,9.00
2012,10,21,13,18,8.90
2012,10,21,13,19,8.90
2012,10,21,13,20,8.80
2012,10,21,13,21,8.80
2012,10,21,13,22,8.80
2012,10,21,13,23,8.90
2012,10,21,13,24,9.00
2012,10,21,13,25,9.00
2012,10,21,13,26,9.00
2012,10,21,13,27,9.00
2012,10,21,13,28,9.10
2012,10,21,13,29,9.00
2012,10,21,13,30,9.00
2012,10,21,13,31,9.10
2012,10,21,13,32,9.00
2012,10,21,13,33,9.00
2012,10,21,13,34,9.00
2012,10,21,13,35,9.10
2012,10,21,13,36,9.10
2012,10,21,13,37,9.10
2012,10,21,13,38,9.10
2012,10,21,13,39,9.10
2012,10,21,13,40,9.10
2012,10,21,13,41,9.10
2012,10,21,13,42,9.10
2012,10,21,13,43,9.10
2012,10,21,13,44,9.10
2012,10,21,13,45,9.10
2012,10,21,13,46,9.10
2012,10,21,13,47,9.10
2012,10,21,13,48,9.10
2012,10,21,13,49,9.10
2012,10,21,13,50,9.20
2012,10,21,13,51,9.20
2012,10,21,13,52,9.20
2012,10,21,13,53,9.20
2012,10,21,13,54,9.20
2012,10,21,13,55,9.30
2012,10,21,13,56,9.30
2012,10,21,13,57,9.30
2012,10,21,13,58,9.30
2012,10,21,13,59,9.30
2012,10,21,14,00,9.30
2012,10,21,14,01,9.20
2012,10,21,14,02,9.20
2012,10,21,14,03,9.20
2012,10,21,14,04,9.10
2012,10,21,14,05,9.10
2012,10,21,14,06,9.20
2012,10,21,14,07,9.20
2012,10,21,14,08,9.20
2012,10,21,14,09,9.20
2012,10,21,14,10,9.20
2012,10,21,14,11,9.20
2012,10,21,14,12,9.20
2012,10,21,14,13,9.20
2012,10,21,14,14,9.20
2012,10,21,14,15,9.20
2012,10,21,14,16,9.20
2012,10,21,14,17,9.20
2012,10,21,14,18,9.20
2012,10,21,14,19,9.20
2012,10,21,14,20,9.20
2012,10,21,14,21,9.20
2012,10,21,14,22,9.20
2012,10,21,14,23,9.30
2012,10,21,14,24,9.30
2012,10,21,14,25,9.30
2012,10,21,14,26,9.40
2012,10,21,14,27,9.40
2012,10,21,14,28,9.40
2012,10,21,14,29,9.40
2012,10,21,14,30,9.40
2012,10,21,14,31,9.40
2012,10,21,14,32,9.40
2012,10,21,14,33,9.40
2012,10,21,14,34,9.40
2012,10,21,14,35,9.40
2012,10,21,14,36,9.50
2012,10,21,14,37,9.40
2012,10,21,14,38,9.50
2012,10,21,14,39,9.50
2012,10,21,14,40,9.50
2012,10,21,14,41,9.50
2012,10,21,14,42,9.40
2012,10,21,14,43,9.40
2012,10,21,14,44,9.40
2012,10,21,14,45,9.40
2012,10,21,14,46,9.40
2012,10,21,14,47,9.40
2012,10,21,14,48,9.50
2012,10,21,14,49,9.50
2012,10,21,14,50,9.60
2012,10,21,14,51,9.60
2012,10,21,14,52,9.60
2012,10,21,14,53,9.60
2012,10,21,14,54,9.60
2012,10,21,14,55,9.60
2012,10,21,14,56,9.60
2012,10,21,14,57,9.60
2012,10,21,14,58,9.60
2012,10,21,14,59,9.60
2012,10,21,15,00,9.60
2012,10,21,15,01,9.50
2012,10,21,15,02,9.50
2012,10,21,15,03,9.50
2012,10,21,15,04,9.40
2012,10,21,15,05,9.40
2012,10,21,15,06,9.40
2012,10,21,15,07,9.40
2012,10,21,15,08,9.40
2012,10,21,15,09,9.40
2012,10,21,15,10,9.40
2012,10,21,15,11,9.50
2012,10,21,15,12,9.50
2012,10,21,15,13,9.60
2012,10,21,15,14,9.60
2012,10,21,15,15,9.70
2012,10,21,15,16,9.80
2012,10,21,15,17,9.80
2012,10,21,15,18,9.90
2012,10,21,15,19,9.90
2012,10,21,15,20,9.90
2012,10,21,15,21,9.90
2012,10,21,15,22,10.00
2012,10,21,15,23,10.00
2012,10,21,15,24,10.00
2012,10,21,15,25,10.00
2012,10,21,15,26,10.10
2012,10,21,15,27,10.20
2012,10,21,15,28,10.20
2012,10,21,15,29,10.20
2012,10,21,15,30,10.30
2012,10,21,15,31,10.30
2012,10,21,15,32,10.30
2012,10,21,15,33,10.20
2012,10,21,15,34,10.20
2012,10,21,15,35,10.20
2012,10,21,15,36,10.10
2012,10,21,15,37,10.10
2012,10,21,15,38,10.00
2012,10,21,15,39,10.00
2012,10,21,15,40,9.90
2012,10,21,15,41,9.90
2012,10,21,15,42,9.80
2012,10,21,15,43,9.80
2012,10,21,15,44,9.70
2012,10,21,15,45,9.70
2012,10,21,15,46,9.60
2012,10,21,15,47,9.60
2012,10,21,15,48,9.60
2012,10,21,15,49,9.60
2012,10,21,15,50,9.60
2012,10,21,15,51,9.50
2012,10,21,15,52,9.50
2012,10,21,15,53,9.50
2012,10,21,15,54,9.40
2012,10,21,15,55,9.40
2012,10,21,15,56,9.40
2012,10,21,15,57,9.40
2012,10,21,15,58,9.30
2012,10,21,15,59,9.30
2012,10,21,16,00,9.30
2012,10,21,16,01,9.30
2012,10,21,16,02,9.30
2012,10,21,16,03,9.30
2012,10,21,16,04,9.30
2012,10,21,16,05,9.30
2012,10,21,16,06,9.30
2012,10,21,16,07,9.30
2012,10,21,16,08,9.20
2012,10,21,16,09,9.20
2012,10,21,16,10,9.20
2012,10,21,16,11,9.20
2012,10,21,16,12,9.10
2012,10,21,16,13,9.10
2012,10,21,16,14,9.10
2012,10,21,16,15,9.10
2012,10,21,16,16,9.10
2012,10,21,16,17,9.10
2012,10,21,16,18,9.10
2012,10,21,16,19,9.00
2012,10,21,16,20,9.00
2012,10,21,16,21,9.00
2012,10,21,16,22,9.00
2012,10,21,16,23,9.00
2012,10,21,16,24,8.90
2012,10,21,16,25,8.90
2012,10,21,16,26,9.00
2012,10,21,16,27,9.00
2012,10,21,16,28,9.00
2012,10,21,16,29,9.00
2012,10,21,16,30,9.00
2012,10,21,16,31,8.90
2012,10,21,16,32,8.90
2012,10,21,16,33,8.90
2012,10,21,16,34,8.90
2012,10,21,16,35,9.00
2012,10,21,16,36,8.90
2012,10,21,16,37,8.90
2012,10,21,16,38,8.90
2012,10,21,16,39,8.90
2012,10,21,16,40,8.90
2012,10,21,16,41,8.90
2012,10,21,16,42,8.90
2012,10,21,16,43,8.80
2012,10,21,16,44,8.80
2012,10,21,16,45,8.80
2012,10,21,16,46,8.80
2012,10,21,16,47,8.80
2012,10,21,16,48,8.80
2012,10,21,16,49,8.80
2012,10,21,16,50,8.80
2012,10,21,16,51,8.70
2012,10,21,16,52,8.70
2012,10,21,16,53,8.70
2012,10,21,16,54,8.60
2012,10,21,16,55,8.60
2012,10,21,16,56,8.60
2012,10,21,16,57,8.50
2012,10,21,16,58,8.50
2012,10,21,16,59,8.50
2012,10,21,17,00,8.40
2012,10,21,17,01,8.40
2012,10,21,17,02,8.40
2012,10,21,17,03,8.30
2012,10,21,17,04,8.30
2012,10,21,17,05,8.30
2012,10,21,17,06,8.30
2012,10,21,17,07,8.20
2012,10,21,17,08,8.20
2012,10,21,17,09,8.20
2012,10,21,17,10,8.20
2012,10,21,17,11,8.20
2012,10,21,17,12,8.20
2012,10,21,17,13,8.20
2012,10,21,17,14,8.20
2012,10,21,17,15,8.20
2012,10,21,17,16,8.20
2012,10,21,17,17,8.20
2012,10,21,17,18,8.20
2012,10,21,17,19,8.20
2012,10,21,17,20,8.20
2012,10,21,17,21,8.20
2012,10,21,17,22,8.20
2012,10,21,17,23,8.20
2012,10,21,17,24,8.20
2012,10,21,17,25,8.20
2012,10,21,17,26,8.20
2012,10,21,17,27,8.20
2012,10,21,17,28,8.20
2012,10,21,17,29,8.20
2012,10,21,17,30,8.20
2012,10,21,17,31,8.20
2012,10,21,17,32,8.20
2012,10,21,17,33,8.20
2012,10,21,17,34,8.20
2012,10,21,17,35,8.20
2012,10,21,17,36,8.20
2012,10,21,17,37,8.20
2012,10,21,17,38,8.20
2012,10,21,17,39,8.20
2012,10,21,17,40,8.20
2012,10,21,17,41,8.20
2012,10,21,17,42,8.20
2012,10,21,17,43,8.20
2012,10,21,17,44,8.20
2012,10,21,17,45,8.20
2012,10,21,17,46,8.20
2012,10,21,17,47,8.20
2012,10,21,17,48,8.20
2012,10,21,17,49,8.20
2012,10,21,17,50,8.20
2012,10,21,17,51,8.10
2012,10,21,17,52,8.10
2012,10,21,17,53,8.10
2012,10,21,17,54,8.10
2012,10,21,17,55,8.10
2012,10,21,17,56,8.10
2012,10,21,17,57,8.10
2012,10,21,17,58,8.10
2012,10,21,17,59,8.10
2012,10,21,18,00,8.00
2012,10,21,18,01,8.00
2012,10,21,18,02,8.00
2012,10,21,18,03,8.00
2012,10,21,18,04,8.00
2012,10,21,18,05,8.00